User: anonymous   Login
Location: Albany
(35.0000°S, 118.0000°E)
Time: 00:49:08
(UTC-04:00)
Language:

CZ-4B R/B - Orbit

View from above orbital plane
View from above orbital plane
View from above satellite
View from above satellite

Ground track
Ground track

The orbit data is extracted from the following two-line orbital elements,

1 33410U 08053C   17207.70622056 +.00000316 +00000-0 +27779-4 0  9998
2 33410 097.7323 177.9530 0120952 058.7278 302.5724 14.98318128476489
Epoch (UTC): 26 July 2017 16:56:57
Eccentricity: 0.0120952
inclination: 97.7323°
perigee height: 488 km
apogee height: 656 km
right ascension of ascending node: 177.9530°
argument of perigee: 58.7278°
revolutions per day: 14.98318128
mean anomaly at epoch: 302.5724°
orbit number at epoch: 47648

The dashed part of the orbit path shows where the satellite is in the earth's shadow,  

DLR